Showing default

HULIANWANG DIGUI-161, 68135

Orbit data source: Space-Track

HULIANWANG DIGUI-161, 68135 is a payload satellite owned by Zhongguo Xingwang (CN) in LEO that was launched on Thu, 12 Mar 2026 UTC via a CHANG ZHENG 8A launch vehicle from the Wenchang Satellite Launch Center (WSC). Payload-class satellites include a variety of spacecraft equipped with specific instruments for various scientific and technological missions. These include communications satellites like Starlink; space stations such as the ISS; scientific satellites like the Hubble; Earth observation satellites from companies like Planet Labs, Umbra, and HawkEye 360; GPS; miniature CubeSats for education and research; and military/defense satellites.

Loading next visibility...
Identifier
68135, 2026-047G
Orbit
LEO
Country
Flag of CNCN / PRC
Related business
Manufacturer
CAST?
Mission
Operational spacecraft
Bus & Motor
XINGWANG C, Unknown motor
Mass
~700 kg wet, ~700 kg dry
Launch date (UTC)
2026-03-12 (2 months ago)
Launch vehicle
CHANG ZHENG 8A
Launch site
Wenchang Satellite Launch Center (WSC)
Object type
Payload
Rocket body
Debris
Shape & HBR
Unknown shape, 1.1 m
Radar Cross Section
RCS unknown

Expand to show TLE details & history
Last TLE update: 21 hours ago

TLE from 21 hours ago
0 HULIANWANG DIGUI-161
1 68135U 26047G   26118.69711962 -.00000083  00000-0  78890-4 0  9999
2 68135  50.0096 233.9963 0000781  11.2538 348.8358 13.44225698  6487
Epoch: 2026-04-28T16:43Z
TLE epoch observation values (Epoch: 2026-04-28T16:43:51.135Z)
Latitude
-0.00001°
Longitude
126.36451°
Altitude
1,093.518 km
Speed
7.307 km/s
True Right ascension
15h 35m 59s
True Declination
0° 00' 00"
Sunlit
Object was in full shadow at epoch
Visualization orbit readout
Latitude
Unknown
Longitude
Unknown
Altitude
Unknown
Speed
Unknown
Apparent Right ascension
Unknown
Apparent Declination
Unknown
Sunlit
N/A
Visualization observer readout
Local Sidereal Time
21:28:28
Azimuth
Unknown
Elevation
Unknown
Doppler factor
Unknown
Orbital elements
Apogee altitude
1,094.872 km
Perigee altitude
1,093.705 km
Semi-major axis
7,472.426 km
Eccentricity
0.00008
Inclination
50.0096°
RAAN
233.9963°
Arg. of periapsis
11.2538°
True anomaly
348.83407°
Mean anomaly
348.8358°
Eccentric anomaly
348.83493°
Mean motion
3.36009 °/min
Orbital period
107.14 mins
BSTAR
0.00007889
Loading maneuver chart data...
Computing Atmospheric mass density...
Loading historical data...
Loading historical data...
Loading historical data...
Loading historical data...
Loading historical data...
Loading historical data...
Loading historical data...

Documentation

Showing up to 5 results
|